Flag for Belgium Weather past 2 weeks in Charleroi, Belgium

Now
39 °F

Passing clouds.


Feels Like: 32 °F
Forecast: 37 / 47 °F
Wind: 13 mph from West

Location: Charleroi / Gosselies

Current Time: Apr 1, 2015 at 8:25:51 AM

Latest Report: Apr 1, 2015 at 7:50 AM


Visibility: N/A

Pressure: 30.09 "Hg

Humidity: 70%

Dew point: 30 °F

Location of CharleroiLocation

Historic Weather in Charleroi — Graph

°F

Charleroi temperature yesterday

Maximum temperature yesterday: 54 °F (at 3:50 PM)
Minimum temperature yesterday: 41 °F (at 9:20 PM)
Average temperature yesterday: 48 °F

Past Weeks' High & Low Weather Summary

 TemperatureHumidityPressure
High63 °F (Mar 17, 3:20 PM)100% (Mar 25, 5:50 AM)30.39 "Hg (Mar 25, 5:50 AM)
Low30 °F (Mar 23, 4:50 AM)39% (Mar 17, 12:50 PM)29.45 "Hg (Mar 29, 6:20 PM)
Average43 °F80%30.00 "Hg
* Reported Mar 17 6:20 AM — Apr 1 7:20 AM, Charleroi, Weather by CustomWeather, © 2015

Note: Actual official high and low records may vary slightly from our data, if they occured in-between our weather recording intervals... More about our weather records

Advertising

Charleroi weather history for previous 24 hours

 ConditionsComfort  
Time TempWeatherWind HumidityBarometerVisibility
7:20 AM
Wed, Apr 1
39 °FPassing clouds.10 mph70%30.09 "HgN/A
6:50 AM39 °FPassing clouds.10 mph70%30.07 "HgN/A
6:20 AM39 °FPassing clouds.10 mph70%30.07 "HgN/A
5:50 AM37 °FPassing clouds.10 mph75%30.07 "HgN/A
5:20 AM37 °FPassing clouds.12 mph81%30.07 "HgN/A
4:50 AM39 °FPassing clouds.13 mph65%30.04 "HgN/A
4:20 AM39 °FPassing clouds.10 mph70%30.04 "HgN/A
3:50 AM39 °FPassing clouds.14 mph70%30.04 "HgN/A
3:20 AM39 °FPassing clouds.13 mph65%30.01 "HgN/A
2:50 AM41 °FPassing clouds.15 mph66%30.01 "HgN/A
2:20 AM41 °FPassing clouds.13 mph70%30.01 "HgN/A
1:50 AM41 °FPassing clouds.13 mph70%29.98 "HgN/A
1:20 AM41 °FPassing clouds.12 mph76%29.98 "HgN/A
12:50 AM41 °FPassing clouds.12 mph76%29.98 "HgN/A
12:20 AM41 °FPassing clouds.13 mph76%29.98 "HgN/A
11:50 PM
Tue, Mar 31
41 °FPassing clouds.13 mph76%29.95 "HgN/A
11:20 PM41 °FPassing clouds.10 mph81%29.95 "HgN/A
10:50 PM41 °FPassing clouds.12 mph87%29.95 "HgN/A
10:20 PM41 °FSprinkles. Passing clouds.13 mph87%29.95 "HgN/A
9:50 PM43 °FThunderstorms. Passing clouds.13 mph76%29.92 "HgN/A
9:20 PM41 °FPassing clouds.13 mph81%29.92 "HgN/A
8:50 PM45 °FThunderstorms. Broken clouds.22 mph76%29.92 "Hg5 mi
8:20 PM48 °FThunderstorms. Partly sunny.21 mph62%29.86 "HgN/A
7:50 PM48 °FScattered clouds.20 mph66%29.86 "HgN/A
7:20 PM48 °FScattered clouds.18 mph62%29.86 "HgN/A
6:50 PM48 °FScattered clouds.22 mph54%29.86 "HgN/A
6:20 PM52 °FSprinkles. Scattered clouds.15 mph47%29.83 "HgN/A
5:50 PM50 °FScattered clouds.14 mph50%29.83 "HgN/A
5:20 PM52 °FScattered clouds.16 mph44%29.83 "HgN/A
4:50 PM54 °FScattered clouds.16 mph44%29.83 "HgN/A
4:20 PM52 °FScattered clouds.20 mph47%29.83 "HgN/A
3:50 PM54 °FScattered clouds.16 mph51%29.80 "HgN/A
3:20 PM52 °FScattered clouds.22 mph50%29.80 "HgN/A
2:50 PM52 °FScattered clouds.15 mph67%29.77 "HgN/A
2:20 PM48 °FScattered clouds.15 mph76%29.77 "HgN/A
1:50 PM45 °FSprinkles. Scattered clouds.16 mph87%29.74 "HgN/A
1:20 PM46 °FSprinkles. Partly sunny.22 mph76%29.74 "Hg3 mi
12:50 PM48 °FSprinkles. Broken clouds.16 mph71%29.71 "Hg5 mi
12:20 PM48 °FSprinkles. Broken clouds.15 mph76%29.68 "Hg4 mi
11:50 AM50 °FSprinkles. Partly sunny.21 mph62%29.65 "HgN/A
11:20 AM50 °FScattered clouds.20 mph62%29.65 "HgN/A
10:50 AM50 °FScattered clouds.21 mph67%29.62 "HgN/A
10:20 AM50 °FScattered clouds.22 mph67%29.59 "HgN/A
9:50 AM50 °FPartly sunny.23 mph71%29.59 "HgN/A
9:20 AM50 °FPartly sunny.24 mph76%29.56 "HgN/A
8:50 AM50 °FSprinkles. Partly sunny.22 mph82%29.53 "HgN/A
8:20 AM50 °FSprinkles. Passing clouds.26 mph82%29.53 "HgN/A
Weather by CustomWeather, © 2015

See weather overviewHow to use our weather pages